NEMO-HD (46277 NORAD) Tracking and Keplerian Element Data

This shows tracking and keplerian element data for the satellite.

Feedback or suggestion? Click here.




ElementValue
Catalog46277
NameNEMO-HD
Epoch Orbit1386
Epoch Day338.64001766
Epoch Year2020
RAAN50.1585
Inclination97.4554
Eccentricity0.000152
Argument of Perigee34.6431
Mean Anonmoly69.3969
Mean Motion15.16160701
Decay Rate8.65E-06
L11 46277U 20061F 20338.64001766 .00000865 00000-0 48267-4 0 9991
L22 46277 97.4554 50.1585 0001520 34.6431 69.3969 15.16160701 13863

Live tracking and technical data element details for NEMO-HD (NORAD 46277). NEMO-HD can be tracked NOW for your location showing map with azimuth and elevation plus other details from your city location.

Track the satellite on the map from your city or location and see movement details for azimuth, elevation, latitude, longitude, range, height, and movement on the map or in text.







IsCatalogInMostPopularTable: catalog: 46277, numindb: 23
Update: records affected: 1



GetName: 46277 NEMO-HD

Hit Count: updated at: Sat, 05 Dec 2020 05:44:11 GMT